IU1FIL-23 Weather Reports


time (UTC)temp
C
wind
direction
speed
KPH
gust
KPH
rain 1hr
cm
rain 24hr
cm
rain mn
cm
humidity
%
barometer
mb
20260507133126 11 0.0 0.0 0.00 0.00 0.00 10 1016.0
20260507132122 12 0.0 0.0 0.00 0.00 0.00 10 1016.0
20260507131118 13 0.0 0.0 0.00 0.00 0.00 10 1016.0
20260507130105 14 0.0 0.0 0.00 0.00 0.00 99 1015.9
20260507125100 14 0.0 0.0 0.00 0.00 0.00 99 1015.9
20260507124056 13 0.0 0.0 0.00 0.00 0.00 10 1015.8
20260507123052 13 0.0 0.0 0.00 0.00 0.00 10 1015.6
20260507122048 13 0.0 0.0 0.00 0.00 0.00 10 1015.8
20260507121044 12 0.0 0.0 0.00 0.00 0.00 10 1015.6
20260507120040 13 0.0 0.0 0.00 0.00 0.00 10 1015.6
20260507115036 13 0.0 0.0 0.00 0.00 0.00 10 1015.4
20260507114032 13 0.0 0.0 0.00 0.00 0.00 10 1015.6
20260507113028 13 0.0 0.0 0.00 0.00 0.00 10 1015.6
20260507112023 14 0.0 0.0 0.00 0.00 0.00 98 1015.7
20260507111019 15 0.0 0.0 0.00 0.00 0.00 95 1015.8
20260507110015 15 0.0 0.0 0.00 0.00 0.00 92 1015.7
20260507105011 15 0.0 0.0 0.00 0.00 0.00 88 1015.8
20260507103953 16 0.0 0.0 0.00 0.00 0.00 91 1015.8
20260507102940 17 0.0 0.0 0.00 0.00 0.00 86 1015.8
20260507101936 18 0.0 0.0 0.00 0.00 0.00 81 1015.8
20260507100931 16 0.0 0.0 0.00 0.00 0.00 83 1015.9
20260507095926 14 0.0 0.0 0.00 0.00 0.00 92 1015.9
20260507094922 15 0.0 0.0 0.00 0.00 0.00 92 1015.8
20260507093917 16 0.0 0.0 0.00 0.00 0.00 86 1015.7
20260507092913 14 0.0 0.0 0.00 0.00 0.00 93 1015.6
20260507091908 15 0.0 0.0 0.00 0.00 0.00 10 1015.6
20260507090903 13 0.0 0.0 0.00 0.00 0.00 10 1015.5
20260507085848 13 0.0 0.0 0.00 0.00 0.00 10 1015.4
20260507084843 13 0.0 0.0 0.00 0.00 0.00 10 1015.3
20260507083838 13 0.0 0.0 0.00 0.00 0.00 10 1015.2
20260507082832 14 0.0 0.0 0.00 0.00 0.00 10 1015.1
20260507081837 14 0.0 0.0 0.00 0.00 0.00 10 1015.1
20260507080823 16 0.0 0.0 0.00 0.00 0.00 86 1015.1
20260507075819 18 0.0 0.0 0.00 0.00 0.00 93 1015.1
20260507074814 17 0.0 0.0 0.00 0.00 0.00 98 1015.0
20260507073809 16 0.0 0.0 0.00 0.00 0.00 92 1014.9
20260507072805 16 0.0 0.0 0.00 0.00 0.00 84 1015.0
20260507071800 16 0.0 0.0 0.00 0.00 0.00 10 1014.9
20260507070756 15 0.0 0.0 0.00 0.00 0.00 10 1014.8
20260507065751 15 0.0 0.0 0.00 0.00 0.00 10 1014.8
20260507064747 14 0.0 0.0 0.00 0.00 0.00 10 1014.6
20260507063742 14 0.0 0.0 0.00 0.00 0.00 10 1014.5
20260507062730 13 0.0 0.0 0.00 0.00 0.00 10 1014.4
20260507061725 13 0.0 0.0 0.00 0.00 0.00 10 1014.3
20260507060720 14 0.0 0.0 0.00 0.00 0.00 10 1014.2
20260507055716 14 0.0 0.0 0.00 0.00 0.00 10 1014.1
20260507054711 13 0.0 0.0 0.00 0.00 0.00 10 1014.1
20260507053707 13 0.0 0.0 0.00 0.00 0.00 10 1014.0
20260507052702 13 0.0 0.0 0.00 0.00 0.00 10 1013.9
20260507051657 12 0.0 0.0 0.00 0.00 0.00 10 1013.7
20260507050653 12 0.0 0.0 0.00 0.00 0.00 10 1013.5
20260507045648 10 0.0 0.0 0.00 0.00 0.00 10 1013.5
20260507044643 8 0.0 0.0 0.00 0.00 0.00 10 1013.5
20260507043639 7 0.0 0.0 0.00 0.00 0.00 10 1013.4
20260507042634 7 0.0 0.0 0.00 0.00 0.00 10 1013.3
20260507041630 7 0.0 0.0 0.00 0.00 0.00 10 1013.2
20260507040625 7 0.0 0.0 0.00 0.00 0.00 10 1013.2
20260507035620 7 0.0 0.0 0.00 0.00 0.00 10 1013.1
20260507034616 7 0.0 0.0 0.00 0.00 0.00 10 1013.1
20260507033611 7 0.0 0.0 0.00 0.00 0.00 10 1013.0
20260507032607 7 0.0 0.0 0.00 0.00 0.00 10 1012.9
20260507031602 7 0.0 0.0 0.00 0.00 0.00 10 1013.0
20260507030557 6 0.0 0.0 0.00 0.00 0.00 10 1012.8
20260507025553 7 0.0 0.0 0.00 0.00 0.00 10 1012.9
20260507024548 7 0.0 0.0 0.00 0.00 0.00 10 1012.9
20260507023543 7 0.0 0.0 0.00 0.00 0.00 10 1012.9
20260507022539 7 0.0 0.0 0.00 0.00 0.00 10 1012.8
20260507021534 7 0.0 0.0 0.00 0.00 0.00 10 1012.8
20260507020530 7 0.0 0.0 0.00 0.00 0.00 10 1012.8
20260507015525 7 0.0 0.0 0.00 0.00 0.00 10 1012.7
20260507014520 7 0.0 0.0 0.00 0.00 0.00 10 1012.7
20260507013516 7 0.0 0.0 0.00 0.00 0.00 10 1012.6
20260507012511 7 0.0 0.0 0.00 0.00 0.00 10 1012.5
20260507011507 7 0.0 0.0 0.00 0.00 0.00 10 1012.5
20260507010502 7 0.0 0.0 0.00 0.00 0.00 10 1012.6
20260507005457 7 0.0 0.0 0.00 0.00 0.00 10 1012.6
20260507004453 7 0.0 0.0 0.00 0.00 0.00 10 1012.6
20260507003448 7 0.0 0.0 0.00 0.00 0.00 10 1012.6
20260507002444 7 0.0 0.0 0.00 0.00 0.00 10 1012.7
20260507001439 7 0.0 0.0 0.00 0.00 0.00 10 1012.7
20260507000435 8 0.0 0.0 0.00 0.00 0.00 10 1012.7
20260506235430 8 0.0 0.0 0.00 0.00 0.00 10 1012.6
20260506234425 8 0.0 0.0 0.00 0.00 0.00 10 1012.6
20260506233421 8 0.0 0.0 0.00 0.00 0.00 10 1012.7
20260506232416 8 0.0 0.0 0.00 0.00 0.00 10 1012.8
20260506231411 8 0.0 0.0 0.00 0.00 0.00 10 1012.7
20260506230407 8 0.0 0.0 0.00 0.00 0.00 10 1012.7
20260506225402 8 0.0 0.0 0.00 0.00 0.00 10 1012.7
20260506224357 8 0.0 0.0 0.00 0.00 0.00 10 1012.6
20260506223352 8 0.0 0.0 0.00 0.00 0.00 10 1012.6
20260506222346 8 0.0 0.0 0.00 0.00 0.00 10 1012.6
20260506221341 8 0.0 0.0 0.00 0.00 0.00 10 1012.5
20260506220336 8 0.0 0.0 0.00 0.00 0.00 10 1012.4
20260506215330 8 0.0 0.0 0.00 0.00 0.00 10 1012.4
20260506214325 8 0.0 0.0 0.00 0.00 0.00 10 1012.5
20260506213320 8 0.0 0.0 0.00 0.00 0.00 10 1012.5
20260506212258 9 0.0 0.0 0.00 0.00 0.00 10 1012.6
20260506211253 8 0.0 0.0 0.00 0.00 0.00 10 1012.5
20260506210248 8 0.0 0.0 0.00 0.00 0.00 10 1012.6
20260506205242 8 0.0 0.0 0.00 0.00 0.00 10 1012.5
20260506204222 8 0.0 0.0 0.00 0.00 0.00 10 1012.2
20260506203215 9 0.0 0.0 0.00 0.00 0.00 10 1012.2
20260506202209 10 0.0 0.0 0.00 0.00 0.00 10 1012.2
20260506201204 9 0.0 0.0 0.00 0.00 0.00 10 1012.2
20260506200159 9 0.0 0.0 0.00 0.00 0.00 10 1011.9
20260506195154 8 0.0 0.0 0.00 0.00 0.00 10 1012.0
20260506194150 9 0.0 0.0 0.00 0.00 0.00 10 1011.6
20260506193145 9 0.0 0.0 0.00 0.00 0.00 10 1011.7
20260506192140 9 0.0 0.0 0.00 0.00 0.00 10 1011.3
20260506191136 9 0.0 0.0 0.00 0.00 0.00 10 1011.3
20260506190131 10 0.0 0.0 0.00 0.00 0.00 10 1011.1
20260506185127 10 0.0 0.0 0.00 0.00 0.00 98 1010.9
20260506184122 10 0.0 0.0 0.00 0.00 0.00 93 1010.7
20260506183117 10 0.0 0.0 0.00 0.00 0.00 91 1010.7
20260506182113 10 0.0 0.0 0.00 0.00 0.00 93 1010.4
20260506181108 11 0.0 0.0 0.00 0.00 0.00 92 1010.3
20260506180104 11 0.0 0.0 0.00 0.00 0.00 96 1010.5
20260506175059 11 0.0 0.0 0.00 0.00 0.00 93 1010.0
20260506174541 11 0.0 0.0 0.00 0.00 0.00 93 1010.0
20260506174054 11 0.0 0.0 0.00 0.00 0.00 93 1010.0
20260506173050 11 0.0 0.0 0.00 0.00 0.00 90 1010.1
20260506172045 11 0.0 0.0 0.00 0.00 0.00 92 1010.1
20260506171041 11 0.0 0.0 0.00 0.00 0.00 92 1010.5
20260506170036 11 0.0 0.0 0.00 0.00 0.00 92 1010.1
20260506165031 11 0.0 0.0 0.00 0.00 0.00 88 1010.2
20260506164027 12 0.0 0.0 0.00 0.00 0.00 85 1010.3
20260506163015 12 0.0 0.0 0.00 0.00 0.00 84 1010.0
20260506162011 12 0.0 0.0 0.00 0.00 0.00 90 1010.4
20260506161006 12 0.0 0.0 0.00 0.00 0.00 87 1010.2
20260506160038 12 0.0 0.0 0.00 0.00 0.00 93 1010.5
20260506160002 12 0.0 0.0 0.00 0.00 0.00 93 1010.5
20260506154957 11 0.0 0.0 0.00 0.00 0.00 98 1010.2
20260506153952 12 0.0 0.0 0.00 0.00 0.00 91 1010.2
20260506152935 13 0.0 0.0 0.00 0.00 0.00 85 1010.0
20260506151931 13 0.0 0.0 0.00 0.00 0.00 86 1010.0
20260506150926 12 0.0 0.0 0.00 0.00 0.00 91 1010.2
20260506145921 12 0.0 0.0 0.00 0.00 0.00 10 1010.4
20260506144912 13 0.0 0.0 0.00 0.00 0.00 94 1010.5
20260506143907 12 0.0 0.0 0.00 0.00 0.00 10 1010.6
20260506142903 11 0.0 0.0 0.00 0.00 0.00 10 1010.4
20260506141858 12 0.0 0.0 0.00 0.00 0.00 10 1010.4
20260506140853 11 0.0 0.0 0.00 0.00 0.00 10 1010.3
20260506135849 12 0.0 0.0 0.00 0.00 0.00 10 1010.4
20260506134844 13 0.0 0.0 0.00 0.00 0.00 93 1010.0
20260506133840 12 0.0 0.0 0.00 0.00 0.00 93 1010.4